EAG5510 SBFZ-SBBE

Flight info

Callsign EAG5510
Flight time 1h 31m
Altitude 34000
Route ISUPI UZ81 OBLEV DCT LIVED
Aircraft B77W/H-SDE1E2E3FGHIJ2J3J4J5M1RWXY/LB1D1

Departure

Time 2026-04-28 16:19
Airport Pinto Martins International Airport (SBFZ)

Arrival

Time 2026-04-28 17:50
Airport Val de Cans/Júlio Cezar Ribeiro International Airport (SBBE)
Time Latitude Longitude Altitude Speed Heading
2026-04-28 15:57 -3.77765 -38.54208 98 ft 0 kts 131°
2026-04-28 16:10 -3.77760 -38.54214 96 ft 2 kts 132°
2026-04-28 16:10 -3.77748 -38.54226 97 ft 2 kts 137°
2026-04-28 16:10 -3.77726 -38.54243 95 ft 2 kts 148°
2026-04-28 16:11 -3.77696 -38.54256 94 ft 2 kts 170°
2026-04-28 16:11 -3.77664 -38.54254 94 ft 2 kts 206°
2026-04-28 16:12 -3.77643 -38.54234 95 ft 1 kts 262°
2026-04-28 16:12 -3.77643 -38.54232 95 ft 0 kts 270°
2026-04-28 16:15 -3.77635 -38.54285 95 ft 10 kts 281°
2026-04-28 16:15 -3.77605 -38.54349 98 ft 10 kts 317°
2026-04-28 16:16 -3.77489 -38.54382 98 ft 8 kts
2026-04-28 16:16 -3.77431 -38.54375 97 ft 8 kts
2026-04-28 16:17 -3.77356 -38.54305 101 ft 9 kts 94°
2026-04-28 16:17 -3.77368 -38.54250 101 ft 0 kts 105°
2026-04-28 16:18 -3.77369 -38.54243 100 ft 11 kts 105°
2026-04-28 16:18 -3.77466 -38.53881 100 ft 96 kts 105°
2026-04-28 16:18 -3.77705 -38.52984 99 ft 167 kts 104°
2026-04-28 16:18 -3.78054 -38.51709 313 ft 203 kts 105°
2026-04-28 16:19 -3.78425 -38.50349 1158 ft 197 kts 106°
2026-04-28 16:19 -3.78789 -38.49030 1998 ft 199 kts 106°
2026-04-28 16:19 -3.79240 -38.47663 2367 ft 217 kts 121°
2026-04-28 16:19 -3.80412 -38.46631 2673 ft 237 kts 159°
2026-04-28 16:20 -3.82074 -38.46520 3190 ft 248 kts 193°
2026-04-28 16:20 -3.83773 -38.46985 3779 ft 258 kts 195°
2026-04-28 16:20 -3.85547 -38.47420 4564 ft 265 kts 192°
2026-04-28 16:20 -3.87373 -38.47767 5417 ft 269 kts 190°
2026-04-28 16:21 -3.89209 -38.48058 5963 ft 272 kts 188°
2026-04-28 16:21 -3.91103 -38.48330 5993 ft 277 kts 188°
2026-04-28 16:21 -3.93005 -38.48601 5997 ft 273 kts 192°
2026-04-28 16:21 -3.94716 -38.49346 5997 ft 271 kts 220°
2026-04-28 16:22 -3.95866 -38.50835 6062 ft 273 kts 248°
2026-04-28 16:22 -3.96270 -38.52689 6729 ft 275 kts 269°
2026-04-28 16:22 -3.96091 -38.54602 7546 ft 278 kts 279°
2026-04-28 16:22 -3.95740 -38.56516 8365 ft 281 kts 280°
2026-04-28 16:23 -3.95363 -38.58452 9159 ft 284 kts 280°
2026-04-28 16:23 -3.94987 -38.60408 9942 ft 288 kts 280°
2026-04-28 16:23 -3.94615 -38.62405 10560 ft 300 kts 280°
2026-04-28 16:23 -3.94227 -38.64554 10781 ft 327 kts 279°
2026-04-28 16:24 -3.93814 -38.66886 10995 ft 353 kts 279°
2026-04-28 16:24 -3.93376 -38.69383 11440 ft 371 kts 279°
2026-04-28 16:24 -3.92922 -38.71966 12220 ft 381 kts 279°
2026-04-28 16:24 -3.92457 -38.74597 13182 ft 386 kts 279°
2026-04-28 16:25 -3.91986 -38.77265 14156 ft 391 kts 279°
2026-04-28 16:25 -3.91517 -38.79922 15079 ft 395 kts 279°
2026-04-28 16:25 -3.91192 -38.81762 15688 ft 399 kts 279°
2026-04-28 16:25 -3.90546 -38.85420 16821 ft 406 kts 279°
2026-04-28 16:26 -3.89947 -38.88202 17636 ft 412 kts 284°
2026-04-28 16:26 -3.89114 -38.90970 18451 ft 417 kts 288°
2026-04-28 16:26 -3.88179 -38.93735 19254 ft 422 kts 289°
2026-04-28 16:26 -3.87209 -38.96531 20008 ft 427 kts 289°
2026-04-28 16:27 -3.86236 -38.99355 20757 ft 432 kts 288°
2026-04-28 16:27 -3.85267 -39.02218 21468 ft 436 kts 288°
2026-04-28 16:27 -3.83340 -39.08052 22809 ft 446 kts 288°
2026-04-28 16:28 -3.82377 -39.11012 23458 ft 450 kts 288°
2026-04-28 16:28 -3.81406 -39.14008 24082 ft 454 kts 288°
2026-04-28 16:28 -3.80426 -39.17034 24673 ft 459 kts 288°
2026-04-28 16:28 -3.79437 -39.20089 25254 ft 463 kts 288°
2026-04-28 16:29 -3.77434 -39.26274 26369 ft 470 kts 288°
2026-04-28 16:29 -3.75398 -39.32555 27386 ft 478 kts 288°
2026-04-28 16:30 -3.74367 -39.35733 27858 ft 482 kts 288°
2026-04-28 16:30 -3.73330 -39.38930 28318 ft 485 kts 288°
2026-04-28 16:30 -3.72285 -39.42150 28750 ft 488 kts 288°
2026-04-28 16:30 -3.71234 -39.45390 29159 ft 491 kts 288°
2026-04-28 16:31 -3.70175 -39.48653 29541 ft 494 kts 288°
2026-04-28 16:31 -3.69112 -39.51928 29967 ft 495 kts 288°
2026-04-28 16:31 -3.68057 -39.55178 29994 ft 497 kts 288°
2026-04-28 16:32 -3.65930 -39.61729 30017 ft 492 kts 288°
2026-04-28 16:32 -3.62748 -39.71525 30013 ft 493 kts 288°
2026-04-28 16:33 -3.60980 -39.76966 30001 ft 494 kts 288°
2026-04-28 16:33 -3.58494 -39.84615 29994 ft 494 kts 288°
2026-04-28 16:34 -3.56380 -39.91118 30002 ft 494 kts 288°
2026-04-28 16:34 -3.54254 -39.97657 30000 ft 494 kts 288°
2026-04-28 16:35 -3.52129 -40.04191 30001 ft 494 kts 288°
2026-04-28 16:35 -3.50003 -40.10725 30001 ft 493 kts 288°
2026-04-28 16:36 -3.47878 -40.17257 30002 ft 493 kts 288°
2026-04-28 16:36 -3.45753 -40.23784 30000 ft 493 kts 288°
2026-04-28 16:37 -3.43629 -40.30309 30002 ft 493 kts 288°
2026-04-28 16:38 -3.40439 -40.40104 30001 ft 493 kts 288°
2026-04-28 16:38 -3.38314 -40.46630 30001 ft 493 kts 288°
2026-04-28 16:39 -3.36208 -40.53169 30002 ft 493 kts 285°
2026-04-28 16:39 -3.34716 -40.59866 30001 ft 493 kts 280°
2026-04-28 16:40 -3.33467 -40.66610 30003 ft 493 kts 281°
2026-04-28 16:40 -3.32121 -40.73347 30001 ft 493 kts 281°
2026-04-28 16:41 -3.30719 -40.80063 30002 ft 493 kts 281°
2026-04-28 16:41 -3.29318 -40.86778 30003 ft 493 kts 281°
2026-04-28 16:42 -3.27926 -40.93499 30002 ft 493 kts 281°
2026-04-28 16:42 -3.26550 -41.00178 30001 ft 493 kts 281°
2026-04-28 16:43 -3.25165 -41.06905 30000 ft 493 kts 281°
2026-04-28 16:43 -3.23779 -41.13622 30001 ft 493 kts 281°
2026-04-28 16:44 -3.22393 -41.20339 30001 ft 493 kts 281°
2026-04-28 16:44 -3.21006 -41.27058 30000 ft 493 kts 281°
2026-04-28 16:45 -3.19618 -41.33781 30001 ft 493 kts 281°
2026-04-28 16:45 -3.18230 -41.40498 30001 ft 493 kts 281°
2026-04-28 16:46 -3.16842 -41.47216 30001 ft 493 kts 281°
2026-04-28 16:46 -3.15462 -41.53892 30001 ft 493 kts 281°
2026-04-28 16:47 -3.14074 -41.60605 30002 ft 493 kts 281°
2026-04-28 16:47 -3.12684 -41.67326 30001 ft 493 kts 281°
2026-04-28 16:48 -3.11295 -41.74038 30002 ft 493 kts 281°
2026-04-28 16:48 -3.09910 -41.80757 29999 ft 493 kts 281°
2026-04-28 16:49 -3.08546 -41.87485 30001 ft 493 kts 281°
2026-04-28 16:49 -3.07185 -41.94205 30001 ft 493 kts 281°
2026-04-28 16:50 -3.05820 -42.00924 30001 ft 493 kts 281°
2026-04-28 16:50 -3.04455 -42.07642 30002 ft 493 kts 281°
2026-04-28 16:51 -3.03088 -42.14366 30003 ft 493 kts 281°
2026-04-28 16:51 -3.01840 -42.21065 30000 ft 493 kts 279°
2026-04-28 16:52 -3.00696 -42.27825 30002 ft 493 kts 279°
2026-04-28 16:52 -2.99549 -42.34596 30001 ft 493 kts 279°
2026-04-28 16:53 -2.98383 -42.41356 30001 ft 493 kts 279°
2026-04-28 16:53 -2.97208 -42.48105 30001 ft 493 kts 279°
2026-04-28 16:54 -2.96037 -42.54818 30002 ft 493 kts 279°
2026-04-28 16:54 -2.94859 -42.61577 30000 ft 493 kts 279°
2026-04-28 16:55 -2.93682 -42.68330 30001 ft 493 kts 279°
2026-04-28 16:55 -2.92506 -42.75078 30003 ft 493 kts 279°
2026-04-28 16:56 -2.91328 -42.81831 30001 ft 493 kts 279°
2026-04-28 16:56 -2.90151 -42.88582 30000 ft 493 kts 279°
2026-04-28 16:57 -2.89171 -42.94195 30000 ft 493 kts 279°
2026-04-28 16:57 -2.87994 -43.00942 30001 ft 493 kts 279°
2026-04-28 16:58 -2.86814 -43.07698 30001 ft 493 kts 279°
2026-04-28 16:58 -2.85635 -43.14446 29999 ft 493 kts 279°
2026-04-28 16:59 -2.84453 -43.21208 30002 ft 493 kts 279°
2026-04-28 16:59 -2.83272 -43.27964 29999 ft 493 kts 279°
2026-04-28 17:00 -2.82099 -43.34672 30002 ft 493 kts 279°
2026-04-28 17:00 -2.80917 -43.41430 30003 ft 493 kts 279°
2026-04-28 17:01 -2.79733 -43.48196 30002 ft 493 kts 279°
2026-04-28 17:01 -2.78551 -43.54951 30002 ft 493 kts 279°
2026-04-28 17:02 -2.77376 -43.61660 30001 ft 493 kts 279°
2026-04-28 17:02 -2.76193 -43.68414 30002 ft 493 kts 279°
2026-04-28 17:03 -2.74419 -43.78536 30001 ft 492 kts 279°
2026-04-28 17:03 -2.73236 -43.85281 30001 ft 492 kts 279°
2026-04-28 17:04 -2.71461 -43.95405 30001 ft 492 kts 279°
2026-04-28 17:05 -2.69683 -44.05537 30001 ft 492 kts 279°
2026-04-28 17:06 -2.67912 -44.15623 30002 ft 492 kts 279°
2026-04-28 17:06 -2.66135 -44.25742 30001 ft 492 kts 279°
2026-04-28 17:07 -2.64949 -44.32489 30002 ft 492 kts 279°
2026-04-28 17:07 -2.63762 -44.39240 30000 ft 492 kts 279°
2026-04-28 17:08 -2.62576 -44.45983 30002 ft 492 kts 279°
2026-04-28 17:08 -2.61389 -44.52733 30001 ft 492 kts 279°
2026-04-28 17:09 -2.60200 -44.59488 30001 ft 492 kts 279°
2026-04-28 17:09 -2.59013 -44.66235 30000 ft 492 kts 279°
2026-04-28 17:10 -2.57826 -44.72976 30001 ft 492 kts 279°
2026-04-28 17:10 -2.56644 -44.79688 30001 ft 492 kts 279°
2026-04-28 17:11 -2.55455 -44.86436 30001 ft 492 kts 279°
2026-04-28 17:11 -2.54265 -44.93189 30001 ft 492 kts 279°
2026-04-28 17:12 -2.53076 -44.99932 30001 ft 492 kts 279°
2026-04-28 17:12 -2.51886 -45.06679 30000 ft 492 kts 279°
2026-04-28 17:13 -2.50695 -45.13428 30002 ft 492 kts 279°
2026-04-28 17:13 -2.49504 -45.20179 30000 ft 493 kts 279°
2026-04-28 17:14 -2.48311 -45.26935 29999 ft 493 kts 279°
2026-04-28 17:14 -2.47120 -45.33680 30001 ft 492 kts 279°
2026-04-28 17:15 -2.45928 -45.40430 30000 ft 492 kts 279°
2026-04-28 17:15 -2.44744 -45.47134 30015 ft 492 kts 279°
2026-04-28 17:16 -2.43551 -45.53880 30001 ft 492 kts 279°
2026-04-28 17:16 -2.42358 -45.60632 29999 ft 493 kts 279°
2026-04-28 17:17 -2.41165 -45.67376 29999 ft 492 kts 279°
2026-04-28 17:17 -2.39972 -45.74123 30001 ft 492 kts 279°
2026-04-28 17:18 -2.38780 -45.80861 29996 ft 492 kts 279°
2026-04-28 17:18 -2.37594 -45.87560 30017 ft 492 kts 279°
2026-04-28 17:19 -2.36401 -45.94301 29994 ft 492 kts 279°
2026-04-28 17:19 -2.35207 -46.01038 30002 ft 492 kts 279°
2026-04-28 17:20 -2.34207 -46.06687 29994 ft 492 kts 279°
2026-04-28 17:20 -2.32818 -46.14525 30008 ft 492 kts 279°
2026-04-28 17:21 -2.31624 -46.21262 29996 ft 492 kts 279°
2026-04-28 17:22 -2.29831 -46.31375 29992 ft 492 kts 279°
2026-04-28 17:22 -2.28642 -46.38077 30001 ft 492 kts 279°
2026-04-28 17:23 -2.26847 -46.48192 29994 ft 492 kts 279°
2026-04-28 17:23 -2.25651 -46.54930 29997 ft 492 kts 279°
2026-04-28 17:24 -2.24454 -46.61672 29997 ft 492 kts 279°
2026-04-28 17:24 -2.23257 -46.68414 30017 ft 492 kts 279°
2026-04-28 17:25 -2.21460 -46.78529 30001 ft 492 kts 279°
2026-04-28 17:26 -2.20263 -46.85264 30000 ft 492 kts 279°
2026-04-28 17:26 -2.19072 -46.91963 30001 ft 492 kts 279°
2026-04-28 17:27 -2.17873 -46.98706 30016 ft 492 kts 279°
2026-04-28 17:27 -2.16673 -47.05455 29453 ft 498 kts 279°
2026-04-28 17:27 -2.16067 -47.08861 28821 ft 495 kts 279°
2026-04-28 17:28 -2.15468 -47.12224 28190 ft 488 kts 279°
2026-04-28 17:28 -2.14293 -47.18827 26947 ft 475 kts 279°
2026-04-28 17:28 -2.13716 -47.22067 26350 ft 469 kts 279°
2026-04-28 17:29 -2.13148 -47.25262 25744 ft 464 kts 279°
2026-04-28 17:29 -2.12586 -47.28416 25149 ft 459 kts 279°
2026-04-28 17:29 -2.12036 -47.31507 24556 ft 454 kts 279°
2026-04-28 17:30 -2.10942 -47.37649 23399 ft 444 kts 279°
2026-04-28 17:30 -2.09869 -47.43673 22249 ft 435 kts 279°
2026-04-28 17:30 -2.09341 -47.46640 21686 ft 431 kts 279°
2026-04-28 17:31 -2.08818 -47.49576 21126 ft 427 kts 279°
2026-04-28 17:31 -2.07785 -47.55377 20015 ft 420 kts 279°
2026-04-28 17:32 -2.06275 -47.60931 18931 ft 411 kts 293°
2026-04-28 17:32 -2.05079 -47.63512 18397 ft 408 kts 295°
2026-04-28 17:32 -2.03854 -47.66061 17848 ft 405 kts 295°
2026-04-28 17:32 -2.02648 -47.68588 17317 ft 402 kts 295°
2026-04-28 17:33 -2.01468 -47.71111 16777 ft 399 kts 294°
2026-04-28 17:33 -2.00309 -47.73634 16232 ft 396 kts 294°
2026-04-28 17:33 -1.99174 -47.76131 15709 ft 394 kts 294°
2026-04-28 17:33 -1.98808 -47.76940 15528 ft 393 kts 294°
2026-04-28 17:34 -1.96939 -47.81088 14646 ft 388 kts 294°
2026-04-28 17:34 -1.95852 -47.83505 14118 ft 385 kts 294°
2026-04-28 17:34 -1.94755 -47.85942 13598 ft 383 kts 294°
2026-04-28 17:34 -1.93667 -47.88357 13072 ft 380 kts 294°
2026-04-28 17:35 -1.92581 -47.90769 12547 ft 378 kts 294°
2026-04-28 17:35 -1.91504 -47.93159 12019 ft 376 kts 294°
2026-04-28 17:35 -1.90435 -47.95530 11507 ft 373 kts 294°
2026-04-28 17:35 -1.89372 -47.97890 11048 ft 369 kts 294°
2026-04-28 17:36 -1.88339 -48.00183 10904 ft 356 kts 294°
2026-04-28 17:36 -1.87336 -48.02408 10747 ft 345 kts 294°
2026-04-28 17:36 -1.86366 -48.04556 10607 ft 334 kts 294°
2026-04-28 17:36 -1.85422 -48.06642 10455 ft 324 kts 294°
2026-04-28 17:37 -1.84510 -48.08664 10318 ft 314 kts 294°
2026-04-28 17:37 -1.83624 -48.10624 10191 ft 304 kts 294°
2026-04-28 17:37 -1.82768 -48.12520 10076 ft 295 kts 294°
2026-04-28 17:37 -1.81934 -48.14364 9859 ft 289 kts 294°
2026-04-28 17:38 -1.81119 -48.16172 9550 ft 288 kts 294°
2026-04-28 17:38 -1.80292 -48.18000 9231 ft 291 kts 293°
2026-04-28 17:38 -1.79448 -48.19868 9035 ft 295 kts 293°
2026-04-28 17:38 -1.78611 -48.21714 8757 ft 285 kts 294°
2026-04-28 17:39 -1.77807 -48.23496 8305 ft 281 kts 294°
2026-04-28 17:39 -1.77003 -48.25281 7950 ft 281 kts 294°
2026-04-28 17:39 -1.75398 -48.28840 7292 ft 280 kts 294°
2026-04-28 17:40 -1.74610 -48.30571 6970 ft 265 kts 295°
2026-04-28 17:40 -1.73744 -48.32171 6833 ft 260 kts 300°
2026-04-28 17:40 -1.72821 -48.33734 6684 ft 263 kts 300°
2026-04-28 17:40 -1.71882 -48.35316 6537 ft 266 kts 300°
2026-04-28 17:41 -1.70935 -48.36918 6366 ft 267 kts 300°
2026-04-28 17:41 -1.69998 -48.38514 6212 ft 266 kts 300°
2026-04-28 17:41 -1.69068 -48.40105 6056 ft 264 kts 300°
2026-04-28 17:41 -1.68143 -48.41691 5903 ft 263 kts 300°
2026-04-28 17:42 -1.67535 -48.42736 5797 ft 262 kts 300°
2026-04-28 17:42 -1.66620 -48.44310 5642 ft 261 kts 300°
2026-04-28 17:42 -1.65414 -48.46382 5467 ft 259 kts 300°
2026-04-28 17:42 -1.64516 -48.47927 5358 ft 256 kts 299°
2026-04-28 17:43 -1.63910 -48.48965 5278 ft 256 kts 300°
2026-04-28 17:43 -1.62708 -48.51013 5079 ft 259 kts 300°
2026-04-28 17:43 -1.62104 -48.52042 4977 ft 259 kts 300°
2026-04-28 17:43 -1.61196 -48.53594 4839 ft 259 kts 300°
2026-04-28 17:44 -1.60282 -48.55153 4672 ft 260 kts 300°
2026-04-28 17:44 -1.59095 -48.56479 4442 ft 260 kts 328°
2026-04-28 17:44 -1.57472 -48.57248 4204 ft 258 kts 336°
2026-04-28 17:44 -1.55815 -48.57984 3920 ft 263 kts 335°
2026-04-28 17:45 -1.54159 -48.58733 3652 ft 255 kts 335°
2026-04-28 17:45 -1.52599 -48.59437 3398 ft 235 kts 336°
2026-04-28 17:45 -1.51081 -48.59732 3165 ft 213 kts
2026-04-28 17:45 -1.49811 -48.59166 3004 ft 195 kts 37°
2026-04-28 17:46 -1.48748 -48.58326 2779 ft 194 kts 38°
2026-04-28 17:46 -1.47701 -48.57469 2512 ft 194 kts 42°
2026-04-28 17:46 -1.46760 -48.56571 2267 ft 180 kts 45°
2026-04-28 17:46 -1.45916 -48.55717 2014 ft 164 kts 45°
2026-04-28 17:47 -1.45158 -48.54946 1850 ft 155 kts 45°
2026-04-28 17:47 -1.44390 -48.54166 1625 ft 158 kts 45°
2026-04-28 17:47 -1.43625 -48.53391 1415 ft 155 kts 45°
2026-04-28 17:47 -1.43115 -48.52872 1276 ft 154 kts 45°
2026-04-28 17:48 -1.42113 -48.51856 1011 ft 156 kts 45°
2026-04-28 17:48 -1.41351 -48.51084 769 ft 155 kts 45°
2026-04-28 17:48 -1.40588 -48.50318 547 ft 156 kts 45°
2026-04-28 17:48 -1.39830 -48.49543 365 ft 156 kts 45°
2026-04-28 17:49 -1.39066 -48.48771 175 ft 156 kts 45°
2026-04-28 17:49 -1.38328 -48.48019 46 ft 143 kts 45°
2026-04-28 17:49 -1.37753 -48.47441 45 ft 89 kts 45°
2026-04-28 17:49 -1.37472 -48.47158 48 ft 52 kts 46°
2026-04-28 17:50 -1.37334 -48.47017 49 ft 11 kts 45°
2026-04-28 17:50 -1.37276 -48.46967 49 ft 11 kts 32°
2026-04-28 17:50 -1.37210 -48.46934 47 ft 6 kts 50°
2026-04-28 17:50 -1.37214 -48.46909 49 ft 2 kts 126°
2026-04-28 17:51 -1.37236 -48.46905 49 ft 4 kts 190°
2026-04-28 17:51 -1.37257 -48.46930 49 ft 8 kts 236°
2026-04-28 17:51 -1.37293 -48.46975 49 ft 9 kts 228°
2026-04-28 17:51 -1.37335 -48.47018 49 ft 10 kts 225°
2026-04-28 17:52 -1.37386 -48.47070 49 ft 11 kts 225°
2026-04-28 17:52 -1.37442 -48.47126 48 ft 12 kts 225°
2026-04-28 17:52 -1.37559 -48.47244 48 ft 12 kts 225°
2026-04-28 17:53 -1.37618 -48.47304 47 ft 12 kts 225°
2026-04-28 17:53 -1.37679 -48.47366 46 ft 13 kts 225°
2026-04-28 17:53 -1.37747 -48.47433 45 ft 14 kts 225°
2026-04-28 17:53 -1.37815 -48.47501 45 ft 14 kts 224°
2026-04-28 17:54 -1.37882 -48.47568 45 ft 14 kts 226°
2026-04-28 17:54 -1.37962 -48.47616 44 ft 14 kts 193°
2026-04-28 17:54 -1.38057 -48.47629 46 ft 14 kts 186°
2026-04-28 17:54 -1.38152 -48.47638 47 ft 14 kts 183°
2026-04-28 17:55 -1.38247 -48.47643 48 ft 14 kts 182°
2026-04-28 17:55 -1.38350 -48.47654 47 ft 17 kts 187°
2026-04-28 17:55 -1.38477 -48.47666 48 ft 19 kts 185°
2026-04-28 17:55 -1.38598 -48.47676 49 ft 16 kts 185°
2026-04-28 17:56 -1.38706 -48.47686 50 ft 16 kts 185°
2026-04-28 17:56 -1.38814 -48.47695 49 ft 16 kts 185°
2026-04-28 17:56 -1.38921 -48.47704 48 ft 16 kts 185°
2026-04-28 17:56 -1.39001 -48.47717 48 ft 11 kts 209°
2026-04-28 17:57 -1.39020 -48.47777 48 ft 9 kts 272°
2026-04-28 17:57 -1.38978 -48.47818 48 ft 9 kts 343°
2026-04-28 17:57 -1.38926 -48.47815 48 ft 7 kts
2026-04-28 17:57 -1.38881 -48.47814 48 ft 3 kts 340°
2026-04-28 17:58 -1.38872 -48.47837 48 ft 4 kts 265°
2026-04-28 17:58 -1.38893 -48.47857 48 ft 5 kts 214°
2026-04-28 17:58 -1.38913 -48.47881 48 ft 3 kts 233°
2026-04-28 17:58 -1.38920 -48.47890 48 ft 0 kts 233°